Вернуться в каталог

STARLINK-31627

АктивенСвязьVLEO
NORAD 59268·PAYLOAD·🇺🇸 United States

Запущен Mar 19, 2024 с Vandenberg Space Force Base

Loading…

Ближайшие Пролёты (ближайшие 24 часа)

TLE

СвежийSource: CelesTrak SupGP

Эпоха: Sep 15, 2026, 02:25 UTC

1 59268C 24050Q   26258.10118056  .00026819  00000+0  79257-3 0  2582
2 59268  53.1594  18.7468 0000997  93.5237 236.6283 15.34370083    12

Отслеживайте STARLINK-31627 в реальном времени с AllMySat

Download on the App Store